Location: ???????????
(55.5758°N, 38.4970°E)
Time: 17:54:51
(UTC+00:00)

CZ-2D R/B - Pass Details

Date: 15 November 2025
Orbit: 788 x 842 km, 98.9° (Epoch: 14 December)

Event Time Altitude Azimuth Distance (km) Brightness Sun altitude
Rises 02:13:31 0° 12° (NNE) 3,332 5.5 -23.2°
Reaches altitude 10° 02:16:26 10° 356° (N) 2,388 4.5 -22.8°
Enters shadow 02:18:07 16° 340° (NNW) 1,987 3.9 -22.6°
